Weather History for KMSP - June, 2013

Change the Weather History Date:

Tuesday, June 18, 2013

  Actual Average Record
Temperature  
Mean Temperature 66 °F 70 °F  
Max Temperature 75 °F 80 °F 98 °F (1953)
Min Temperature 57 °F 60 °F 39 °F (1876)
Degree Days  
Heating Degree Days 0 1  
Month to date heating degree days 42 37  
Since 1 June heating degree days 42 37  
Since 1 July heating degree days 7708 7573  
Cooling Degree Days 1 6  
Month to date cooling degree days 43 73  
Year to date cooling degree days 96 115  
Since 1 June cooling degree days 43 73  
Growing Degree Days 16 (Base 50)    
Moisture  
Dew Point 54 °F    
Average Humidity 64    
Maximum Humidity 78    
Minimum Humidity 49    
Precipitation  
Precipitation 0.00 in 0.15 in 1.14 in (1956)
Month to date precipitation 1.40 2.49  
Year to date precipitation 17.09 12.07  
Snow  
Snow 0.00 in 0.00 in 0.00 in ()
Month to date snowfall 0.0 0.0  
Since 1 June snowfall 0.0 0.0  
Since 1 July snowfall 67.7 54.4  
Snow Depth 0.00 in    
Sea Level Pressure  
Sea Level Pressure 30.06 in    
Wind  
Wind Speed 7 mph (ENE)    
Max Wind Speed 13 mph    
Max Gust Speed 21 mph    
Visibility 10 miles    
Events      
T = Trace of Precipitation, MM = Missing Value Source: NWS Daily Summary

Daily Weather History Graph

Daily Weather History Graph

Search for Another Location

Airport or City:

Trip Planner

Search our weather history database for the weather conditions in past years. The results will help you decide how hot, cold, wet, or windy it might be!

Date:

Astronomy

Jun. 18, 2013 Rise Set
Actual Time 5:26 AM CDT 9:02 PM CDT
Civil Twilight 4:48 AM CDT 9:39 PM CDT
Nautical Twilight 3:59 AM CDT 10:29 PM CDT
Astronomical Twilight 2:54 AM CDT 11:34 PM CDT
Moon 3:37 PM CDT (6/18) 1:46 AM CDT (6/18)
Length of Visible Light 16h 50m
Length of Day
15h 35m
Waxing Gibbous, 71% of the Moon is Illuminated
Jun 18
Waxing Gibbous
Jun 23
Full
Jun 29
Last Quarter
Jul 8
New
Jul 15
First Quarter

Hourly Weather History & Observations

Time (CDT) Temp. Dew Point Humidity Pressure Visibility Wind Dir Wind Speed Gust Speed Precip Events Conditions
12:53 AM 64.0 °F 53.1 °F 67% 30.02 in 10.0 mi NE 8.1 mph - N/A   Mostly Cloudy
1:53 AM 62.1 °F 52.0 °F 70% 30.02 in 10.0 mi NE 8.1 mph - N/A   Mostly Cloudy
2:53 AM 61.0 °F 51.1 °F 70% 30.03 in 10.0 mi NE 10.4 mph - N/A   Mostly Cloudy
3:53 AM 60.1 °F 51.1 °F 72% 30.04 in 10.0 mi NNE 8.1 mph - N/A   Mostly Cloudy
4:53 AM 57.9 °F 50.0 °F 75% 30.06 in 10.0 mi NE 6.9 mph - N/A   Mostly Cloudy
5:53 AM 57.9 °F 50.0 °F 75% 30.06 in 10.0 mi NNE 5.8 mph - N/A   Mostly Cloudy
6:14 AM 57.2 °F 50.0 °F 77% 30.09 in 10.0 mi NNE 6.9 mph - N/A   Mostly Cloudy
6:53 AM 57.9 °F 50.0 °F 75% 30.09 in 10.0 mi NNE 4.6 mph - N/A   Mostly Cloudy
7:53 AM 60.1 °F 52.0 °F 75% 30.08 in 10.0 mi NE 9.2 mph 20.7 mph N/A   Overcast
8:53 AM 61.0 °F 53.1 °F 75% 30.09 in 10.0 mi NE 5.8 mph - N/A   Overcast
9:53 AM 64.0 °F 55.9 °F 75% 30.08 in 10.0 mi ESE 6.9 mph - N/A   Overcast
10:53 AM 66.9 °F 57.0 °F 70% 30.09 in 10.0 mi East 4.6 mph - N/A   Overcast
11:53 AM 68.0 °F 57.0 °F 68% 30.09 in 10.0 mi East 6.9 mph - N/A   Overcast
12:29 PM 71.6 °F 59.0 °F 64% 30.09 in 10.0 mi ESE 5.8 mph - N/A   Overcast
12:53 PM 72.0 °F 59.0 °F 64% 30.09 in 10.0 mi East 6.9 mph - N/A   Scattered Clouds
1:53 PM 72.0 °F 57.0 °F 59% 30.07 in 10.0 mi ESE 6.9 mph - N/A   Mostly Cloudy
2:53 PM 73.0 °F 57.0 °F 57% 30.07 in 10.0 mi Variable 3.5 mph 16.1 mph N/A   Mostly Cloudy
3:00 PM 71.6 °F 57.2 °F 60% 30.07 in 10.0 mi East 10.4 mph - N/A   Mostly Cloudy
3:53 PM 72.0 °F 57.0 °F 59% 30.06 in 10.0 mi East 6.9 mph - N/A   Scattered Clouds
4:53 PM 73.9 °F 57.0 °F 55% 30.04 in 10.0 mi ESE 8.1 mph - N/A   Scattered Clouds
5:53 PM 73.0 °F 55.0 °F 53% 30.03 in 10.0 mi ESE 9.2 mph - N/A   Scattered Clouds
6:53 PM 73.9 °F 54.0 °F 50% 30.03 in 10.0 mi Variable 5.8 mph - N/A   Partly Cloudy
7:53 PM 73.9 °F 55.0 °F 52% 30.02 in 10.0 mi SE 5.8 mph - N/A   Scattered Clouds
8:53 PM 72.0 °F 54.0 °F 53% 30.02 in 10.0 mi ENE 5.8 mph - N/A   Partly Cloudy
9:53 PM 71.1 °F 54.0 °F 55% 30.03 in 10.0 mi ESE 9.2 mph - N/A   Partly Cloudy
10:53 PM 68.0 °F 55.9 °F 65% 30.04 in 10.0 mi ESE 5.8 mph - N/A   Partly Cloudy
11:53 PM 68.0 °F 55.9 °F 65% 30.04 in 10.0 mi ESE 5.8 mph - N/A   Partly Cloudy